www.pogodaiklimat.ru

Погода и климат >> Архив погоды >> Россия >> Костромская область >> Макарьев


ПОГОДА в Макарьеве

  • Прогноз погоды в Макарьеве
  • Монитор погоды в Макарьеве

АРХИВ ПОГОДЫ в Макарьеве

Время (UTC), дата Ветер
(напр.,м/с)
 
Видим.   Явления Облачность Т
(С)
Тd
(С)
f
(%)
Тe
(С)
Тes
(С)
Комфортность P
(гПа)
Po
(гПа)
Тmin
(С)
Tmax
(С)
R
(мм)
R24
(мм)
S
(см)
18 10.07 штиль 0 5000 м морось {ливн. осадки, дождь} 10/10 300 м
[St]
+12.8 +12.0 95 +12 +12 995.7 982.0
21 10.07 штиль 0 4000 м слаб. дождь {морось} 10/10 300 м
[Frnb Ns]
+11.5 +10.7 95 +11 +11 996.6 982.8
00 11.07 штиль 0 10 км {дождь, морось} 10/10 300 м
[St]
+10.5 +9.7 95 +10 +10 997.7 983.9
03 11.07 С 1 15 км 9/0
[Ac cast]
+11.0 +9.8 92 +11 +12 998.7 984.9 +10.2 4
06 11.07 С 1 15 км 9/9 300 м
[Cb cap]
+12.7 +8.9 78 +13 +14 999.9 986.2
09 11.07 З 1 25 км 10/10 300 м
[Sc]
+15.0 +8.4 65 +16 +16 1000.9 987.3
12 11.07 штиль 0 25 км в посл. час дождь 10/0 300 м
[As op]
+13.8 +9.1 73 +13 +16 1002.2 988.5
15 11.07 штиль 0 25 км 10/0
[Ac As]
+13.7 +10.2 79 +13 +14 1002.8 989.1 +15.8 0.0
18 11.07 штиль 0 25 км 10/0
[Ac As]
+12.0 +10.2 89 +11 +11 1003.5 989.7
21 11.07 штиль 0 10 км 10/0
[Ac As]
+11.1 +10.1 94 +10 +10 1003.5 989.6
00 12.07 штиль 0 15 км 10/0
[Ac As]
+10.4 +9.5 94 +10 +10 1003.7 989.8
03 12.07 С 1 25 км 8/0
[Ac lent]
+11.3 +10.1 92 +11 +12 1004.3 990.4 +10.1
06 12.07 СЗ 1 25 км 8/3 300 м
[Cu med, cong Ac und]
+15.5 +8.3 62 +16 +20 1005.2 991.5
09 12.07 З 1 25 км 8/3 300 м
[Cu med, cong Ac und]
+16.4 +4.8 46 +17 +23 1006.3 992.7
12 12.07 З 1 25 км 9/9 300 м
[]
+18.0 +6.0 45 +19 +20 1007.1 993.5
15 12.07 СЗ 1 25 км 8/0
[Ac lent]
+16.3 +7.4 56 +17 +18 1007.8 994.1 +18.2
18 12.07 штиль 0 20 км 8/0
[Ac lent]
+12.6 +10.2 85 +12 +12 1008.4 994.6
21 12.07 СЗ 1 20 км 4/0
[Ci sp]
+11.6 +9.4 86 +11 +11 1008.4 994.5
00 13.07 С 1 20 км 8/0
[Ac cast]
+11.3 +9.7 90 +11 +11 1007.6 993.7
03 13.07 С 1 25 км 4/0
[Ac lent]
+13.5 +9.7 78 +14 +15 1007.1 993.3 +9.7
06 13.07 СВ 1 25 км 8/8 600 м
[Cu med, cong]
+18.6 +10.8 60 +20 +22 1006.7 993.2
09 13.07 С 1 25 км 8/8 600 м
[Cu med, cong]
+18.8 +10.1 57 +21 +24 комфорт 1006.4 992.9
12 13.07 СЗ 1 10 км слаб. ливневой дождь 9/6 300 м
[Cb cap Ac trans]
+17.7 +12.5 72 +19 +21 1006.8 993.2
15 13.07 штиль 0 15 км в посл. час ливневой дождь 9/0
[Ac trans]
+16.6 +13.7 83 +16 +18 1007.5 993.9 +19.8 2
18 13.07 СЗ 1 15 км {ливн. осадки} 9/0
[Ac trans]
+13.9 +12.7 92 +14 +14 1008.7 995.0
21 13.07 штиль 0 10 км 10/0
[Ac As]
+11.8 +10.8 94 +11 +11 1008.9 995.0
00 14.07 штиль 0 10 км 10/0
[Ac As]
+11.3 +10.3 94 +11 +11 1009.3 995.4
03 14.07 штиль 0 10 км 10/0
[Ac As]
+12.9 +10.4 85 +12 +13 1009.4 995.5 +11.2
06 14.07 С 1 25 км 4/4 600 м
[Cu med, cong]
+18.4 +9.9 58 +20 +26 1009.3 995.7
09 14.07 СЗ 1 25 км 8/4 600 м
[Cu med, cong Ac lent]
+19.8 +8.3 47 +22 +27 комфорт 1009.2 995.6
12 14.07 СЗ 1 25 км 8/4 600 м
[Cb cap]
+21.3 +7.9 42 +22 +27 комфорт 1009.0 995.5
15 14.07 С 1 25 км 6/6 600 м
[]
+21.1 +6.8 39 +22 +23 комфорт 1009.3 995.8 +22.5
18 14.07 штиль 0 25 км 8/0
[Ac lent]
+15.6 +12.0 79 +15 +15 1009.8 996.1
21 14.07 штиль 0 20 км 10/0
[Ac trans]
+11.5 +10.4 93 +11 +11 1010.2 996.3
00 15.07 штиль 0 10 км 6/0
[Ac lent]
+10.2 +9.3 94 +9 +9 1010.4 996.4
03 15.07 штиль 0 15 км 6/0
[Ac trans]
+12.7 +11.3 91 +12 +14 1010.4 996.5 +9.0
06 15.07 С 1 25 км 3/0
[Ac und]
+20.3 +10.1 52 +23 +32 комфорт 1009.7 996.2
09 15.07 С 1 25 км 3/3 300 м
[Cb calv]
+19.8 +9.6 52 +22 +34 комфорт 1008.9 995.4
12 15.07 С 2 25 км 3/3 300 м
[Cu med, cong]
+22.8 +8.6 40 +24 +31 комфорт 1008.3 995.0
15 15.07 штиль 0 25 км 3/0
[Ac lent]
+19.6 +12.6 64 +21 +23 комфорт 1008.7 995.2 +23.9
18 15.07 штиль 0 25 км 6/0
[Ac und Ci sp]
+13.2 +11.2 88 +13 +13 1009.4 995.6
21 15.07 штиль 0 20 км 3/0
[Ci fib]
+10.4 +9.6 95 +10 +10 1009.5 995.5
00 16.07 З 1 10 км 3/0
[Ci fib]
+8.7 +8.0 95 +8 +8 1010.7 996.6
03 16.07 штиль 0 25 км ясно +11.9 +11.1 95 +11 +14 1010.9 997.0 +8.5
06 16.07 СЗ 1 25 км ясно +20.7 +9.5 49 +23 +34 комфорт 1011.1 997.6
09 16.07 З 1 25 км 4/4 600 м
[Cu med, cong]
+20.6 +9.2 48 +23 +33 комфорт 1011.4 997.9
12 16.07 СЗ 1 25 км 3/3 600 м
[Cu med, cong]
+24.3 +7.2 33 +24 +32 комфорт 1011.4 998.0
15 16.07 В 1 25 км ясно +23.2 +8.0 38 +24 +27 комфорт 1011.2 997.8 +24.7
18 16.07 штиль 0 25 км 4/0
[Ci]
+14.0 +11.5 85 +14 +14 1012.2 998.4
21 16.07 штиль 0 10 км ясно +11.7 +10.7 94 +11 +11 1012.7 998.7
00 17.07 штиль 0 10 км 4/0
[Ci]
+10.6 +9.8 95 +10 +10 1013.0 999.0
03 17.07 В 1 25 км 3/0
[Ci]
+14.4 +11.5 83 +15 +17 1012.7 998.9 +10.4
06 17.07 В 1 25 км 8/0
[Ci]
+21.6 +12.4 56 +24 +33 комфорт 1012.0 998.5
09 17.07 ЮВ 1 25 км 8/6 600 м
[Cb cap Ac lent Ci fib]
+24.7 +10.6 41 +26 +31 жарко 1011.4 998.1
12 17.07 В 2 25 км 10/3 600 м
[Cu med, cong As op]
+24.2 +10.4 42 +25 +27 комфорт 1010.7 997.4
15 17.07 В 2 25 км 8/8 300 м
[Cb cap]
+22.2 +12.9 56 +25 +25 комфорт 1009.9 996.5 +26.3

 

Местоположение метеостанции Макарьев (Костромская область, Россия): широта 57.90 долгота 43.77 высота над уровнем моря 119 м.

В архиве по умолчанию представлена погода в Макарьеве за последнюю неделю. Архивные данные за месяц целиком и за предыдущие месяцы, начиная с января 2011 года, Вы можете получить, выбрав интересующий диапазон дат из раскрывающегося списка и нажав кнопку "Ввод!".


*Определитесь, кто Вы:
робот инопланетянин человек

Внимание! Время в таблицах - всемирное. Для получения местного времени необходимо прибавить поправку, которая равна 3 ч.

Смотрите также архив погоды в соседних городах и на ближайших метеорологических станциях:

Погода в Николо-Поломе (Костромская область, Россия) (55 км)
Погода в Юрьевце (Ивановская область, Россия) (74 км)
Погода в Мантурово (Костромская область, Россия) (76 км)
Погода в Галиче (Костромская область, Россия) (98 км)
Погода в Кологриве (Костромская область, Россия) (107 км)
Погода в Кинешме (Ивановская область, Россия) (109 км)
Погода в Чухломе (Костромская область, Россия) (114 км)
Погода в Шарье (Костромская область, Россия) (116 км)
Погода в Ветлуге (Нижегородская область, Россия) (118 км)
Погода в Красных Баках (Нижегородская область, Россия) (120 км)

Пояснения к столбцам:

Ветер - указаны скорость ветра в м/с - средняя за 10 мин, порывы в срок и между сроками (в фигурных скобках) и направление, откуда дует ветер: С - северный, СВ - северо-восточный, В - восточный, ЮВ - юго-восточный, Ю - южный, ЮЗ - юго-западный, З - западный, СЗ - северо-западный.
Видимость - горизонтальная дальность видимости в метрах или километрах. При видимости от 1 до 10 км при отсутствии осадков обычно наблюдается дымка, при ухудшении видимости до 1 км и менее - туман. В сухую погоду видимость может ухудшаться дымом, пылью или мглою.
Явления - указаны атмосферные явления, наблюдавшиеся в срок или в последний час перед сроком; фигурными скобками обозначены явления, наблюдавшиеся между сроками (за 1-3 часа до срока); квадратными скобками обозначены град или гололедные отложения с указанием их диаметра в мм.
Облачность - указаны через наклонную черту общая и нижняя облачность в баллах и высота нижней границы облаков в метрах; квадратными скобками обозначены формы облаков: Ci - перистые, Cs - перисто-слоистые, Cc - перисто-кучевые, Ac - высококучевые, As - высокослоистые, Sc - слоисто-кучевые, Ns - слоисто-дождевые, Cu - кучевые, Cb - кучево-дождевые. Подробнее классификацию облаков см. в Атласе облаков (PDF).
T - Температура воздуха - температура, измеренная на высоте 2 м над землей.
Td - Температура точки росы - температура, при понижении до которой содержащийся в воздухе водяной пар достигнет насыщения.
f - Относительная влажность воздуха - влажноcть воздуха, измеренная на высоте 2 м над землей.
Te - Эффективная температура - температура, которую ощущает одетый по сезону человек в тени. Характеристика душности погоды. При расчете учитывается влияние влажности воздуха и скорости ветра на теплоощущения человека.
Tes - Эффективная температура на солнце - температура, которую ощущает человек, с поправкой на солнечный нагрев. Характеристика знойности погоды. Зависит от высоты солнца над горизонтом, облачности и скорости ветра. Ночью, в пасмурную погоду, а также при ветре 12 м/с и более поправка равна нулю.
P - Атмосферное давление - приведенное к уровню моря атмосферное давление.
Po - Атмосферное давление - измеренное на уровне метеостанции атмосферное давление.
Tmin - Минимальная температура - минимум температуры воздуха на высоте 2 м над землей.
Tmax - Максимальная температура - максимум температуры воздуха на высоте 2 м над землей.
R - Количество осадков - Количество выпавших осадков за период времени, мм. При наведении курсора мыши на число - период времени, за который выпало указанное количество осадков.
R24 - Количество осадков - Количество выпавших осадков за 24 часа, мм.
S - Снежный покров - Высота снежного покрова, см. При наведении курсора мыши на число - состояние снежного покрова и степень покрытия местности в баллах.